User: anonymous   Login
Location: Unspecified
(0.0000°N, 0.0000°E)
Time: 09:52:54
(UTC+00:00)
Language:

KORONAS-FOTON - Orbit

View from above orbital plane
View from above orbital plane
View from above satellite
View from above satellite

Ground track
Ground track

The orbit data is extracted from the following two-line orbital elements,

1 33504U 09003A   17019.53398392  .00000866  00000-0  45000-4 0  9990
2 33504  82.4419  20.6787 0017866 263.1886  96.7313 15.14653700438979
Epoch (UTC): 19 January 2017 12:48:56
Eccentricity: 0.0017866
inclination: 82.4419°
perigee height: 510 km
apogee height: 534 km
right ascension of ascending node: 20.6787°
argument of perigee: 263.1886°
revolutions per day: 15.14653700
mean anomaly at epoch: 96.7313°
orbit number at epoch: 43897

The dashed part of the orbit path shows where the satellite is in the earth's shadow,  

DLR